Montrose, CO

5:51 AM MDT on May 29, 2017 (GMT -0600)
Montrose Regional

Weather History for KMTJ - July, 2013

Change the Weather History Date:

Thursday, July 25, 2013

  Actual Average Record
Temperature  
Mean Temperature 77 °F 74 °F  
Max Temperature 90 °F 90 °F 93 °F (1997)
Min Temperature 63 °F 58 °F 50 °F (2015)
Degree Days  
Heating Degree Days 0 0  
Month to date heating degree days 0 0  
Since 1 June heating degree days 9 39  
Since 1 July heating degree days 0 0  
Cooling Degree Days 12 9  
Month to date cooling degree days 304 217  
Year to date cooling degree days 568 369  
Since 1 June cooling degree days 543 352  
Growing Degree Days 26 (Base 50)    
Moisture  
Dew Point 48 °F    
Average Humidity 39    
Maximum Humidity 60    
Minimum Humidity 18    
Precipitation  
Precipitation T in 0.05 in 0.08 in (1999)
Month to date precipitation 1.24 0.72  
Year to date precipitation 3.89 5.79  
Sea Level Pressure  
Sea Level Pressure 29.94 in    
Wind  
Wind Speed 7 mph (SSE)    
Max Wind Speed 18 mph    
Max Gust Speed 24 mph    
Visibility 10 miles    
Events      
T = Trace of Precipitation, MM = Missing Value Source: NWS Daily Summary

Daily Weather History Graph

Daily Weather History Graph

Search for Another Location

Airport or City:

Trip Planner

Search our weather history database for the weather conditions in past years. The results will help you decide how hot, cold, wet, or windy it might be!

Date:

Astronomy

Jul. 25, 2013 Rise Set
Actual Time 6:07 AM MDT 8:27 PM MDT
Civil Twilight 5:37 AM MDT 8:57 PM MDT
Nautical Twilight 5:00 AM MDT 9:34 PM MDT
Astronomical Twilight 4:19 AM MDT 10:15 PM MDT
Moon 10:14 PM MDT (7/25) 9:37 AM MDT (7/25)
Length of Visible Light 15h 20m
Length of Day
14h 20m
Waning Gibbous, 88% of the Moon is Illuminated
Jul 25
Waning Gibbous
Jul 29
Last Quarter
Aug 6
New
Aug 14
First Quarter
Aug 20
Full

Hourly Weather History & Observations

Time (MDT) Temp. Dew Point Humidity Pressure Visibility Wind Dir Wind Speed Gust Speed Precip Events Conditions
12:53 AM 66.9 °F 50.0 °F 54% 29.95 in 10.0 mi ESE 8.1 mph - N/A   Clear
1:53 AM 66.9 °F 50.0 °F 54% 29.94 in 10.0 mi SE 6.9 mph - N/A   Clear
2:53 AM 66.0 °F 50.0 °F 56% 29.94 in 10.0 mi ESE 5.8 mph - N/A   Clear
3:53 AM 64.9 °F 50.0 °F 58% 29.94 in 10.0 mi West 3.5 mph - N/A   Clear
4:53 AM 64.9 °F 50.0 °F 58% 29.95 in 10.0 mi SSE 9.2 mph - N/A   Partly Cloudy
5:53 AM 64.9 °F 50.0 °F 58% 29.95 in 10.0 mi SSE 8.1 mph - N/A   Mostly Cloudy
6:53 AM 64.9 °F 50.0 °F 58% 29.98 in 10.0 mi SE 4.6 mph - N/A   Overcast
7:53 AM 66.0 °F 52.0 °F 60% 29.99 in 10.0 mi SSE 3.5 mph - N/A   Partly Cloudy
8:53 AM 73.0 °F 50.0 °F 44% 29.99 in 10.0 mi SE 4.6 mph - N/A   Clear
9:53 AM 77.0 °F 50.0 °F 39% 29.98 in 10.0 mi Calm Calm - N/A   Clear
10:53 AM 82.0 °F 48.9 °F 31% 29.98 in 10.0 mi North 5.8 mph - N/A   Clear
11:53 AM 84.0 °F 46.9 °F 27% 29.97 in 10.0 mi NNW 9.2 mph - N/A   Clear
12:53 PM 86.0 °F 42.1 °F 21% 29.96 in 10.0 mi Variable 5.8 mph - N/A   Clear
1:53 PM 88.0 °F 41.0 °F 19% 29.92 in 10.0 mi Variable 5.8 mph - N/A   Clear
2:53 PM 88.0 °F 39.9 °F 18% 29.92 in 10.0 mi Variable 3.5 mph 19.6 mph N/A   Clear
3:53 PM 88.0 °F 43.0 °F 21% 29.91 in 10.0 mi WNW 10.4 mph 16.1 mph N/A   Clear
4:53 PM 87.1 °F 44.1 °F 22% 29.89 in 10.0 mi WSW 8.1 mph - N/A   Clear
5:53 PM 89.1 °F 45.0 °F 22% 29.88 in 10.0 mi WNW 8.1 mph - N/A   Clear
6:53 PM 84.9 °F 48.0 °F 28% 29.90 in 10.0 mi WSW 6.9 mph - 0.00 in   Partly Cloudy
7:53 PM 81.0 °F 48.9 °F 33% 29.91 in 10.0 mi SSW 6.9 mph - N/A   Clear
8:53 PM 79.0 °F 50.0 °F 36% 29.91 in 10.0 mi SSE 6.9 mph - N/A   Clear
9:53 PM 77.0 °F 48.0 °F 36% 29.94 in 10.0 mi SSE 10.4 mph 19.6 mph N/A   Clear
10:53 PM 73.9 °F 48.0 °F 40% 29.95 in 10.0 mi SE 13.8 mph - N/A   Clear
11:53 PM 72.0 °F 48.0 °F 43% 29.95 in 10.0 mi SE 9.2 mph - N/A   Clear